sat.trackr.live / text

‹ back to catalog

O3B FM3

NORAD 40079 · 2014-038A

PAYLOAD ACTIVE UNKNOWN

§ Identity

Operator
Country
O3B
Launch date
2014-07-10
Launch site
FRGUI
Launch vehicle
Mass (kg)
RCS (m²)
7.45

Purposes: comms

External: N2YO · Heavens-Above · Gunter

§ Orbital elements

Epoch: 2026-09-19T20:29:36.161664Z

Period
287.93 min
Inclination
0.0486°
Eccentricity
0.0003594
Mean motion
5.00115847 rev/d
Perigee alt
8,060.7 km
Apogee alt
8,071.1 km
Semi-major
14,444.0 km
B*
0.0000e+0
RAAN
354.0972°
Arg perigee
226.4699°
Mean anomaly
139.4084°
Rev number
21,777

§ Raw data

O3B FM31 40079U 14038A   26262.85389076 -.00000027  00000+0  00000+0 0  99982 40079   0.0486 354.0972 0003594 226.4699 139.4084  5.00115847217773

JSON: /api/v1/satellites/40079 · /tle

For live sub-satellite position, see the globe view (requires WebGL).

§ Visibility from observer

Set your observer location to see the next 7 days of passes ≥ 10°. The values pass through the URL so the page stays shareable.

No JS? Fill the form by hand. The geolocation button needs JavaScript.